STARLINK-32609, 61929

Orbit data source: Space-Track

STARLINK-32609, 61929 is a payload satellite owned by SpaceX/Seattle (US) in LEO that was launched on Mon, 11 Nov 2024 UTC via an FALCON 9 launch vehicle from the Air Force Eastern Test Range (AFETR). Payload-class satellites include a variety of spacecraft equipped with specific instruments for various scientific and technological missions. These include communications satellites like Starlink; space stations such as the ISS; scientific satellites like the Hubble; Earth observation satellites from companies like Planet Labs, Umbra, and HawkEye 360; GPS; miniature CubeSats for education and research; and military/defense satellites.

Loading next visibility...
Identifier
61929, 2024-207T
Orbit
LEO
Country
Flag of USUS
Related business
Manufacturer
SpaceX/Seattle
Mission
Operational Commercial Communications
Bus & Motor
STARLINK V2M, Unknown motor
Mass
730 kg wet, ~700 kg dry
Launch date (UTC)
2024-11-11 (2 years ago)
Launch vehicle
FALCON 9
Launch site
Air Force Eastern Test Range (AFETR)
Object type
Payload
Rocket body
Debris
Shape & HBR
Box + 2 Pan, 17.7 m
Radar Cross Section
33.884 m², Large (>1 m²)

Expand to show TLE details & history
Last TLE update: 15 hours ago

TLE from 15 hours ago
0 STARLINK-32609
1 61929U 24207T   26263.02093308  .00012485  00000-0  46218-3 0  9990
2 61929  43.0001 264.1633 0001344 274.5865  85.4833 15.27599636104448
Epoch: 2026-09-20T00:30Z
TLE epoch observation values (Epoch: 2026-09-20T00:30:08.618Z)
Latitude
-0.00001°
Longitude
-102.29372°
Altitude
482.693 km
Speed
7.626 km/s
True Right ascension
17h 36m 39s
True Declination
0° 00' 00"
Sunlit
Object was in daylight at epoch
Visualization orbit readout
Latitude
Unknown
Longitude
Unknown
Altitude
Unknown
Speed
Unknown
Apparent Right ascension
Unknown
Apparent Declination
Unknown
Sunlit
N/A
Visualization observer readout
Local Sidereal Time
08:29:27
Azimuth
Unknown
Elevation
Unknown
Doppler factor
Unknown
Orbital elements
Apogee altitude
485.858 km
Perigee altitude
484.013 km
Semi-major axis
6,863.072 km
Eccentricity
0.00013
Inclination
43.0001°
RAAN
264.1633°
Arg. of periapsis
274.5865°
True anomaly
85.49865°
Mean anomaly
85.4833°
Eccentric anomaly
85.49098°
Mean motion
3.81738 °/min
Orbital period
94.31 mins
BSTAR
0.00046218
Loading maneuver chart data...
Computing Atmospheric mass density...
Loading historical data...
Loading historical data...
Loading historical data...
Loading historical data...
Loading historical data...
Loading historical data...
Loading historical data...

Documentation

Showing up to 5 results
|